Location: Fauquembergues
(50.6005°N, 2.0987°E)
Time: 10:39:16
(UTC+00:00)

Cosmos 2233 Rocket - Pass Details

Date: 14 July 2020
Orbit: 954 x 990 km, 82.9° (Epoch: 05 August)

Event Time Altitude Azimuth Distance (km) Brightness Sun altitude
Exits shadow 02:39:39 10° 198° (SSW) 2,731 5.8 -9.4°
Reaches altitude 10° 02:39:43 10° 198° (SSW) 2,702 5.7 -9.4°
Maximum altitude 02:45:53 69° 282° (WNW) 1,040 4.1 -8.8°
Drops below altitude 10° 02:52:10 10° 6° (N) 2,745 7.3 -8.2°
Sets 02:54:44 0° 9° (N) 3,701 8.1 -7.9°
